"Pseudo-MPEC" for ZTF02Bv

Created 2019 Jan 23 12:18:27 UT using Find_Orb

Click here for an explanation of pseudo-MPECs

 
 Astrometry: 
     ZTF02Bv  C2019 01 08.26665907 33 55.99 -08 06 14.7    ~18MI 18.63RUNEOCPI41
     ZTF02Bv  C2019 01 08.26768107 34 02.12 -08 08 10.6    ~18MI 18.12RUNEOCPI41
     ZTF02Bv  C2019 01 08.27178907 34 26.69 -08 15 59.1    ~18MI 18.92RUNEOCPI41
     ZTF02Bv  C2019 01 08.27213607 34 28.77 -08 16 37.3    ~18MI 18.92RUNEOCPI41
     ZTF02Bv  C2019 01 08.28412607 35 42.00 -08 39 45.9    ~18NI 17.10RUNEOCPI41
     ZTF02Bv  C2019 01 08.30742207 38 08.90 -09 26 03.1    ~18MI 21.60RUNEOCPI41
     ZTF02Bv  C2019 01 08.30776907 38 11.12 -09 26 46.2    ~18MI 21.60RUNEOCPI41
     ZTF02Bv  C2019 01 08.30879407 38 17.79 -09 28 50.5    ~18MI 17.88RUNEOCPI41
     ZTF02Bv  C2019 01 08.30914107 38 20.09 -09 29 33.6    ~18MI 17.88RUNEOCPI41
     ZTF02Bv  C2019 01 08.41911007 51 40.33 -13 35 53.2    ~18NI 19.22gUNEOCPI41

Station data:
(I41) Palomar Mountain--ZTF  (N33.357340 W116.859780)  US/California. 1.2-m
   f/2.44 Oschin Schmidt + CCD.

Orbital elements:  ZTF02Bv
   Perihelion 2019 Feb 13.143031 +/- 1.21 TT =  3:25:57 (JD 2458527.643031)
Epoch 2019 Jan  8.0 TT = JDT 2458491.5   Earth MOID: 0.0037   Ju: 0.0375
M 353.51815322 +/- 3.3              Ve: 0.0934   Ma: 0.0365   AutoNEOCP
n   0.17933876 +/- 0.099            Peri.   42.29305 +/- 0.56
a   3.11424846 +/- 1.15             Node   121.05822 +/- 0.9
e   0.7414004 +/- 0.0983            Incl.    1.00224 +/- 0.058
P   5.50                   H 28.6   G  0.15   U 11.2  
q 0.80534317 +/- 0.0156    Q 5.42315376 +/- 3.66
From 10 observations 2019 Jan. 8 (3.7 hr); mean residual 0".58
Residuals in arcseconds: 
190108 I41  .61+  .06-    190108 I41  .28+  .82-    190108 I41  .83+  .45-    
190108 I41  .89+  .02-    190108 I41  .39-  .52+    190108 I41  .06+  .04+    
190108 I41  .71-  .35-    190108 I41  .68-  .33-    
190108 I41  .91-  1.1+    190108 I41  .02+  .31+    

Ephemerides (geocentric):
Date (UTC) HH   RA              Dec         delta   r     elong  mag " sig PA
---- -- -- --  -------------   -----------  ------ ------ -----  --- ---- ---
2019 01 23 12  17 51 56.227   -22 29 06.35  .13982 .87305  34.8 30??  624 160
2019 01 23 13  17 51 58.742   -22 28 51.28  .14023 .87279  34.8 30??  624 160
2019 01 23 14  17 52 01.256   -22 28 36.30  .14064 .87254  34.9 30??  624 160
2019 01 23 15  17 52 03.770   -22 28 21.42  .14106 .87228  34.9 30??  624 160
2019 01 23 16  17 52 06.283   -22 28 06.63  .14147 .87202  34.9 30??  624 160
2019 01 23 17  17 52 08.796   -22 27 51.93  .14188 .87176  35.0 30??  624 160
2019 01 23 18  17 52 11.308   -22 27 37.32  .14229 .87151  35.0 30??  624 160
2019 01 23 19  17 52 13.820   -22 27 22.80  .14270 .87125  35.0 30??  624 160
2019 01 23 20  17 52 16.332   -22 27 08.36  .14311 .87099  35.1 30??  624 160
2019 01 23 21  17 52 18.843   -22 26 54.02  .14353 .87074  35.1 30??  624 160
2019 01 23 22  17 52 21.354   -22 26 39.76  .14394 .87048  35.1 30??  624 160
2019 01 23 23  17 52 23.865   -22 26 25.59  .14435 .87023  35.2 30??  624 160
2019 01 24 00  17 52 26.376   -22 26 11.51  .14476 .86997  35.2 30??  624 160
2019 01 24 01  17 52 28.887   -22 25 57.51  .14518 .86972  35.2 30??  624 160
2019 01 24 02  17 52 31.397   -22 25 43.60  .14559 .86947  35.3 30??  624 160
2019 01 24 03  17 52 33.908   -22 25 29.77  .14600 .86921  35.3 30??  624 160
2019 01 24 04  17 52 36.419   -22 25 16.02  .14641 .86896  35.3 30??  624 159
2019 01 24 05  17 52 38.930   -22 25 02.36  .14683 .86871  35.4 30??  624 159
2019 01 24 06  17 52 41.441   -22 24 48.78  .14724 .86846  35.4 30??  624 159
2019 01 24 07  17 52 43.953   -22 24 35.27  .14765 .86820  35.4 30??  624 159
2019 01 24 08  17 52 46.464   -22 24 21.85  .14806 .86795  35.5 30??  624 159
2019 01 24 09  17 52 48.976   -22 24 08.51  .14848 .86770  35.5 30??  624 159
2019 01 24 10  17 52 51.489   -22 23 55.25  .14889 .86745  35.5 30??  624 159
2019 01 24 11  17 52 54.002   -22 23 42.07  .14930 .86720  35.6 30??  624 159
2019 01 24 12  17 52 56.515   -22 23 28.97  .14972 .86695  35.6 30??  624 159
2019 01 24 13  17 52 59.029   -22 23 15.94  .15013 .86670  35.6 30??  624 159
2019 01 24 14  17 53 01.543   -22 23 02.99  .15054 .86645  35.6 30??  624 159
2019 01 24 15  17 53 04.058   -22 22 50.12  .15096 .86621  35.7 30??  624 159
2019 01 24 16  17 53 06.573   -22 22 37.32  .15137 .86596  35.7 30??  624 159
2019 01 24 17  17 53 09.089   -22 22 24.60  .15179 .86571  35.7 30??  624 159
2019 01 24 18  17 53 11.606   -22 22 11.95  .15220 .86546  35.8 30??  624 159
2019 01 24 19  17 53 14.124   -22 21 59.37  .15261 .86522  35.8 30??  624 159
2019 01 24 20  17 53 16.642   -22 21 46.87  .15303 .86497  35.8 30??  624 159
2019 01 24 21  17 53 19.162   -22 21 34.45  .15344 .86473  35.9 30??  624 159
2019 01 24 22  17 53 21.682   -22 21 22.09  .15386 .86448  35.9 30??  624 159
2019 01 24 23  17 53 24.203   -22 21 09.81  .15427 .86424  35.9 30??  624 159
2019 01 25 00  17 53 26.725   -22 20 57.59  .15468 .86399  36.0 30??  624 159
2019 01 25 01  17 53 29.248   -22 20 45.45  .15510 .86375  36.0 30??  624 159
2019 01 25 02  17 53 31.772   -22 20 33.38  .15551 .86350  36.0 30??  624 158
2019 01 25 03  17 53 34.297   -22 20 21.38  .15593 .86326  36.1 30??  624 158
2019 01 25 04  17 53 36.823   -22 20 09.44  .15634 .86302  36.1 30??  624 158
2019 01 25 05  17 53 39.350   -22 19 57.58  .15676 .86278  36.1 30??  624 158
2019 01 25 06  17 53 41.879   -22 19 45.78  .15717 .86254  36.2 30??  624 158
2019 01 25 07  17 53 44.408   -22 19 34.05  .15759 .86229  36.2 30??  624 158
2019 01 25 08  17 53 46.939   -22 19 22.39  .15800 .86205  36.2 30??  624 158
2019 01 25 09  17 53 49.472   -22 19 10.79  .15842 .86181  36.3 30??  624 158
2019 01 25 10  17 53 52.005   -22 18 59.26  .15883 .86157  36.3 30??  624 158
2019 01 25 11  17 53 54.540   -22 18 47.80  .15925 .86133  36.3 30??  624 158